Stations météo

Publicité
Coventry/Coundon, Grande-Bretagne (99070): Température de l'air & dewpoint: 18.01.2021 06:00:00 - 24.01.2021 06:00:00 (GMT)Coventry/Coundon, Grande-Bretagne (99070): Température de l'air -20cm & Température de l'air -100cm: 18.01.2021 06:00:00 - 24.01.2021 06:00:00 (GMT)Coventry/Coundon, Grande-Bretagne (99070): Vitesse du vent & gusts: 18.01.2021 06:00:00 - 24.01.2021 06:00:00 (GMT)Coventry/Coundon, Grande-Bretagne (99070): Direction du vent: 18.01.2021 06:00:00 - 24.01.2021 06:00:00 (GMT)Coventry/Coundon, Grande-Bretagne (99070): Ensoleillement: 18.01.2021 06:00:00 - 24.01.2021 06:00:00 (GMT)Coventry/Coundon, Grande-Bretagne (99070): Quantités de précipitations: 18.01.2021 06:00:00 - 24.01.2021 06:00:00 (GMT)
Date & Time tt [°C] td [°C] tt -20cm [°C] tt -100cm [°C] ff [km/h] ff [knt] fx [km/h] fx [knt] dd sd [min] rr [mm]
24.01.2021 06:00:00 -2,3 -2,6 - - 5 3 - - E 0 0,0
24.01.2021 05:00:00 -2,4 -2,6 - - 5 3 - - ESE 0 0,0
24.01.2021 04:00:00 -2,9 -3,3 - - 4 2 - - S 0 0,0
24.01.2021 03:00:00 -3,1 -3,8 - - 4 2 - - SSE 0 0,0
24.01.2021 02:00:00 -1,8 -2,2 - - 4 2 - - WSW 0 0,0
24.01.2021 01:00:00 -2,5 -3,2 - - 4 2 - - W 0 0,0
24.01.2021 00:00:00 -2,0 -2,8 - - 4 2 - - W - 0,0
23.01.2021 23:00:00 -1,5 -2,3 - - 4 2 - - W 0 0,0
23.01.2021 22:00:00 -1,0 -1,7 - - 8 4 - - W 0 0,0
23.01.2021 21:00:00 -0,4 -1,1 - - 9 5 - - W 0 0,0
23.01.2021 20:00:00 -0,5 -1,2 - - 4 2 - - W 0 0,0
23.01.2021 19:00:00 -0,4 -0,9 - - 2 1 - - SW 0 0,0
23.01.2021 18:00:00 0,1 -0,8 - - 4 2 - - W 0 0,0
23.01.2021 17:00:00 0,5 -0,8 - - 5 3 - - WNW 6 0,0
23.01.2021 16:00:00 1,2 -0,8 - - 11 6 - - NW 30 0,0
23.01.2021 15:00:00 1,6 -0,2 - - 16 9 - - WNW 12 0,0
23.01.2021 14:00:00 2,2 0,1 - - 8 4 - - WNW 18 0,0
23.01.2021 13:00:00 2,7 0,7 - - 8 4 - - WNW 54 0,0
23.01.2021 12:00:00 2,1 1,0 - - 11 6 - - WNW 42 1,8
23.01.2021 11:00:00 0,9 0,5 - - 8 4 - - WNW 24 0,0
23.01.2021 10:00:00 0,3 0,2 - - 4 2 - - W 6 0,0
23.01.2021 09:00:00 -0,5 -0,5 5,2 7,0 0 0 - - N 0 0,0
23.01.2021 08:00:00 -0,8 -1,0 - - 0 0 - - N 0 0,0
23.01.2021 07:00:00 -0,4 -0,5 - - 0 0 - - N 0 0,0
23.01.2021 06:00:00 -0,2 -0,2 - - 0 0 - - N 0 0,0
23.01.2021 05:00:00 -0,5 -0,5 - - 0 0 - - N 0 0,0
23.01.2021 04:00:00 -0,2 -0,2 - - 0 0 - - N 0 0,0
23.01.2021 03:00:00 -0,2 -0,2 - - 0 0 - - N 0 0,0
23.01.2021 02:00:00 -0,1 -0,1 - - 0 0 - - N 0 0,0
23.01.2021 01:00:00 0,1 0,1 - - 0 0 - - N 0 0,0
23.01.2021 00:00:00 0,2 0,0 - - 8 4 - - WSW - 0,0
22.01.2021 23:00:00 0,5 0,4 - - 4 2 - - WSW 0 0,0
22.01.2021 22:00:00 0,4 0,1 - - 4 2 - - WNW 0 0,0
22.01.2021 21:00:00 0,4 -0,1 - - 5 3 - - W 0 0,4
22.01.2021 20:00:00 2,5 1,4 - - 5 3 - - NNW 0 0,2
22.01.2021 19:00:00 3,4 1,4 - - 5 3 - - NNW 0 0,0
22.01.2021 18:00:00 3,7 1,5 - - 2 1 - - SW 0 0,0
22.01.2021 17:00:00 4,0 1,5 - - 4 2 - - SSW 0 0,0
22.01.2021 16:00:00 5,1 1,6 - - 8 4 - - SSW 0 0,0
22.01.2021 15:00:00 5,9 1,4 - - 11 6 - - SW 12 0,0
22.01.2021 14:00:00 6,3 2,0 - - 9 5 - - WSW 54 0,0
22.01.2021 13:00:00 5,8 1,7 - - 11 6 - - SW 60 0,0
22.01.2021 12:00:00 5,1 1,6 - - 11 6 - - SW 60 0,0
22.01.2021 11:00:00 3,3 1,2 - - 8 4 - - SW 60 0,0
22.01.2021 10:00:00 2,6 0,7 - - 8 4 - - SW 60 0,0
22.01.2021 09:00:00 1,9 0,4 5,7 7,0 9 5 - - WSW 18 0,0
22.01.2021 08:00:00 1,3 0,1 - - 13 7 - - W 0 0,0
22.01.2021 07:00:00 1,4 0,0 - - 13 7 - - W 0 0,0
22.01.2021 06:00:00 1,3 0,1 - - 15 8 - - W 0 0,0
22.01.2021 05:00:00 1,3 0,1 - - 11 6 - - W 0 0,0
22.01.2021 04:00:00 1,5 0,3 - - 13 7 - - W 0 0,0
22.01.2021 03:00:00 1,6 0,4 - - 15 8 - - W 0 0,0
22.01.2021 02:00:00 1,1 0,1 - - 11 6 - - WSW 0 0,0
22.01.2021 01:00:00 1,3 0,2 - - 11 6 - - W 0 0,0
22.01.2021 00:00:00 1,3 0,2 - - 13 7 - - WSW - 0,0
21.01.2021 23:00:00 1,7 0,2 - - 11 6 - - WSW 0 0,0
21.01.2021 22:00:00 1,5 0,1 - - 5 3 - - SW 0 0,0
21.01.2021 21:00:00 1,9 0,2 - - 5 3 - - WSW 0 0,0
21.01.2021 20:00:00 2,4 0,2 - - 8 4 - - WSW 0 0,0
21.01.2021 19:00:00 3,4 0,4 - - 8 4 - - WSW 0 0,0
21.01.2021 18:00:00 3,7 0,2 - - 9 5 - - WSW 0 0,0
21.01.2021 17:00:00 4,5 0,1 - - 4 2 - - SW 0 0,0
21.01.2021 16:00:00 5,3 0,1 - - 9 5 - - SW 0 0,0
21.01.2021 15:00:00 6,0 0,2 - - 15 8 - - WSW 0 0,0
21.01.2021 14:00:00 6,3 0,3 - - 22 12 - - WSW 18 0,0
21.01.2021 13:00:00 6,6 0,8 - - 18 10 - - WSW 30 0,0
21.01.2021 12:00:00 5,7 0,6 - - 18 10 48 26 WSW 18 0,0
21.01.2021 11:00:00 5,5 1,2 - - 22 12 46 25 WSW 18 0,0
21.01.2021 10:00:00 4,6 1,5 - - 16 9 - - SW 6 0,0
21.01.2021 09:00:00 4,1 1,6 6,4 7,0 16 9 - - SW 6 0,0
21.01.2021 08:00:00 3,7 1,8 - - 13 7 - - SW 0 0,0
21.01.2021 07:00:00 2,9 1,4 - - 15 8 - - SW 0 0,0
21.01.2021 06:00:00 3,1 1,1 - - 16 9 - - SW 0 0,0
21.01.2021 05:00:00 2,8 0,8 - - 13 7 - - SW 0 0,0
21.01.2021 04:00:00 2,8 1,2 - - 16 9 - - WSW 0 0,0
21.01.2021 03:00:00 2,6 0,9 - - 22 12 50 27 WSW 0 0,0
21.01.2021 02:00:00 2,6 1,3 - - 22 12 - - WSW 0 0,0
21.01.2021 01:00:00 1,9 1,4 - - 18 10 46 25 W 0 0,4
21.01.2021 00:00:00 1,6 1,2 - - 15 8 - - W - 0,4
20.01.2021 23:00:00 1,5 0,5 - - 21 11 - - W 0 6,2
20.01.2021 22:00:00 9,2 8,3 - - 28 15 55 30 S 0 1,0
20.01.2021 21:00:00 9,2 8,2 - - 22 12 50 27 S 0 0,2
20.01.2021 20:00:00 9,5 8,5 - - 26 14 52 28 S 0 0,4
20.01.2021 19:00:00 9,7 8,5 - - 22 12 48 26 S 0 0,0
20.01.2021 18:00:00 9,5 8,8 - - 21 11 - - S 0 0,2
20.01.2021 17:00:00 9,5 8,7 - - 18 10 - - S 0 0,4
20.01.2021 16:00:00 9,6 8,7 - - 18 10 - - S 0 0,4
20.01.2021 15:00:00 9,9 8,8 - - 18 10 - - S 0 0,0
20.01.2021 14:00:00 9,8 9,0 - - 18 10 - - S 0 0,4
20.01.2021 13:00:00 9,8 9,0 - - 16 9 - - S 0 1,2
20.01.2021 12:00:00 10,2 8,9 - - 21 11 46 25 S 0 0,0
20.01.2021 11:00:00 10,1 9,5 - - 16 9 - - S 0 0,4
20.01.2021 10:00:00 10,0 9,3 - - 15 8 - - S 0 0,8
20.01.2021 09:00:00 10,3 9,5 6,2 6,9 16 9 - - S 0 0,4
20.01.2021 08:00:00 10,7 10,0 - - 13 7 - - SSW 0 0,8
20.01.2021 07:00:00 10,9 10,2 - - 18 10 - - SSW 0 1,2
20.01.2021 06:00:00 10,6 10,1 - - 16 9 - - SSW 0 1,0
20.01.2021 05:00:00 10,9 10,2 - - 16 9 - - SSW 0 0,2
20.01.2021 04:00:00 10,5 10,2 - - 15 8 - - SSW 0 0,6
20.01.2021 03:00:00 10,8 10,1 - - 22 12 - - SSW 0 1,2
20.01.2021 02:00:00 10,8 10,0 - - 16 9 - - SSW 0 0,6
20.01.2021 01:00:00 11,0 9,8 - - 18 10 - - SSW 0 0,2
20.01.2021 00:00:00 11,2 9,4 - - 21 11 - - SSW - 0,0
19.01.2021 23:00:00 10,8 9,3 - - 16 9 - - SSW 0 0,0
19.01.2021 22:00:00 10,5 9,3 - - 21 11 - - SSW 0 0,6
19.01.2021 21:00:00 10,5 8,7 - - 21 11 - - SSW 0 0,0
19.01.2021 20:00:00 10,2 8,5 - - 21 11 50 27 SSW 0 0,0
19.01.2021 19:00:00 9,8 8,5 - - 22 12 - - SSW 0 0,0
19.01.2021 18:00:00 9,4 8,4 - - 21 11 - - SSW 0 0,6
19.01.2021 17:00:00 9,4 8,3 - - 18 10 - - SSW 0 0,6
19.01.2021 16:00:00 9,8 7,9 - - 18 10 - - SW 0 0,0
19.01.2021 15:00:00 9,5 7,7 - - 18 10 46 25 SSW 0 0,0
19.01.2021 14:00:00 9,5 7,4 - - 22 12 46 25 SW 0 0,0
19.01.2021 13:00:00 10,1 7,1 - - 18 10 - - SW 0 0,0
19.01.2021 12:00:00 10,7 7,6 - - 16 9 - - SW 0 0,0
19.01.2021 11:00:00 10,8 8,2 - - 16 9 - - SW 0 0,0
19.01.2021 10:00:00 10,7 8,1 - - 15 8 55 30 SW 0 0,0
19.01.2021 09:00:00 10,5 8,6 5,4 6,9 16 9 - - WSW 0 0,0
19.01.2021 08:00:00 10,7 8,6 - - 15 8 46 25 WSW 0 0,0
19.01.2021 07:00:00 10,9 8,7 - - 21 11 46 25 WSW 0 0,0
19.01.2021 06:00:00 10,2 8,9 - - 16 9 - - WSW 0 0,0
19.01.2021 05:00:00 9,9 9,1 - - 15 8 - - WSW 0 0,2
19.01.2021 04:00:00 9,9 9,2 - - 16 9 - - SW 0 0,4
19.01.2021 03:00:00 9,9 9,2 - - 16 9 - - SW 0 0,6
19.01.2021 02:00:00 9,3 8,9 - - 16 9 - - SSW 0 0,8
19.01.2021 01:00:00 9,3 8,8 - - 15 8 - - SW 0 0,8
19.01.2021 00:00:00 8,4 8,2 - - 9 5 - - SSW - 0,0
18.01.2021 23:00:00 8,0 7,9 - - 11 6 - - SSW 0 0,0
18.01.2021 22:00:00 7,2 7,0 - - 9 5 - - SSW 0 1,4
18.01.2021 21:00:00 7,1 6,5 - - 11 6 - - S 0 1,0
18.01.2021 20:00:00 7,0 5,8 - - 8 4 - - S 0 0,0
18.01.2021 19:00:00 6,9 5,4 - - 13 7 - - SSW 0 0,0
18.01.2021 18:00:00 6,4 4,9 - - 13 7 - - SSW 0 0,0
18.01.2021 17:00:00 6,1 4,7 - - 13 7 - - SSW 0 0,0
18.01.2021 16:00:00 5,8 4,5 - - 15 8 - - SSW 0 0,0
18.01.2021 15:00:00 5,8 3,9 - - 15 8 - - SSW 0 0,0
18.01.2021 14:00:00 5,9 3,2 - - 11 6 - - SW 0 0,0
18.01.2021 13:00:00 5,7 3,0 - - 13 7 - - WSW 0 0,0
18.01.2021 12:00:00 5,6 2,9 - - 11 6 - - WSW 0 0,0
18.01.2021 11:00:00 4,4 2,7 - - 11 6 - - WSW 0 0,0
18.01.2021 10:00:00 3,8 2,6 - - 9 5 - - SW 0 0,0
18.01.2021 09:00:00 3,4 2,3 5,0 6,9 9 5 - - SW 0 0,0
18.01.2021 08:00:00 3,2 2,3 - - 11 6 - - SW 0 0,0
18.01.2021 07:00:00 3,0 2,1 - - 9 5 - - WSW 0 0,0
18.01.2021 06:00:00 2,7 2,2 - - 8 4 - - SW 0 0,0

tt = Température de l'air
td = dewpoint
tt -20cm = Température de l'air -20cm
tt -100cm = Température de l'air -100cm
ff = Vitesse du vent
fx = gusts
dd = Direction du vent
sd = Ensoleillement
rr = Quantités de précipitations

stations d'obs. à proximité